Weather History for Prague, Czech Republic

Change the Weather History Date:

Saturday, July 19, 2014

  Actual Average Record
Temperature  
Mean Temperature 72 °F -  
Max Temperature 86 °F 73 °F 91 °F (2006)
Min Temperature 59 °F 53 °F 46 °F (1996)
Cooling Degree Days 8    
Growing Degree Days 22 (Base 50)    
Moisture  
Dew Point 58 °F    
Average Humidity 55    
Maximum Humidity 88    
Minimum Humidity 26    
Precipitation  
Precipitation 0.00 in 0.09 in - ()
Sea Level Pressure  
Sea Level Pressure 30.03 in    
Wind  
Wind Speed 3 mph ()    
Max Wind Speed 9 mph    
Max Gust Speed -    
Visibility 14.5 miles    
Events      
Averages and records for this station are not official NWS values.
T = Trace of Precipitation, MM = Missing Value Source: Averaged Metar Reports

Daily Weather History Graph

Daily Weather History Graph

Search for Another Location

Airport:

Trip Planner

Search our weather history database for the weather conditions in past years. The results will help you decide how hot, cold, wet, or windy it might be!

Date:

Astronomy

Jul. 19, 2014 Rise Set
Actual Time 5:14 AM CEST 9:03 PM CEST
Civil Twilight 4:32 AM CEST 9:44 PM CEST
Nautical Twilight 3:35 AM CEST 10:41 PM CEST
Astronomical Twilight 2:03 AM CEST 12:10 AM CEST
Moon 12:00 AM CEST (7/19) 2:09 PM CEST (7/19)
Length of Visible Light 17h 11m
Length of Day
15h 48m
Waning Gibbous, 47% of the Moon is Illuminated
Jul 19
Waning Gibbous
Jul 27
New
Aug 4
First Quarter
Aug 10
Full
Aug 17
Last Quarter

Hourly Weather History & Observations

Time (CEST) Temp. Heat Index Dew Point Humidity Pressure Visibility Wind Dir Wind Speed Gust Speed Precip Events Conditions
12:00 AM 66 °F - 58 °F 67% 30.08 in 25 mi SSE 2.2 mph - -   Clear
12:00 AM 66.2 °F - 57.2 °F 73% 30.09 in - South 3.5 mph - N/A   Clear
12:30 AM 66.2 °F - 57.2 °F 73% 30.09 in - South 2.3 mph - N/A   Clear
1:00 AM 70 °F - 57 °F 55% 30.06 in 25 mi ESE 2.2 mph - -   Clear
1:00 AM 69.8 °F - 57.2 °F 64% 30.09 in - Variable 1.2 mph - N/A   Clear
1:30 AM 66.2 °F - 57.2 °F 73% 30.09 in - SSW 1.2 mph - N/A   Clear
2:00 AM 66 °F - 57 °F 66% 30.06 in 19 mi Calm Calm - -  
2:00 AM 66.2 °F - 57.2 °F 73% 30.09 in - Calm Calm - N/A   Clear
2:30 AM 62.6 °F - 57.2 °F 82% 30.09 in - Variable 2.3 mph - N/A   Clear
3:00 AM 64 °F - 56 °F 70% 30.07 in 19 mi NW 2.2 mph - -  
3:00 AM 64.4 °F - 57.2 °F 77% 30.09 in - Variable 1.2 mph - N/A   Clear
3:30 AM 62.6 °F - 55.4 °F 77% 30.09 in - NNW 3.5 mph - N/A   Clear
4:00 AM 63 °F - 56 °F 73% 30.07 in 12 mi NW 2.2 mph - -  
4:00 AM 62.6 °F - 57.2 °F 82% 30.06 in - Variable 2.3 mph - N/A   Clear
4:30 AM 59.0 °F - 55.4 °F 88% 30.09 in - SW 3.5 mph - N/A   Clear
5:00 AM 63 °F - 56 °F 72% 30.07 in 12 mi NW 2.2 mph - -  
5:00 AM 62.6 °F - 55.4 °F 77% 30.09 in - Calm Calm - N/A   Clear
5:30 AM 60.8 °F - 55.4 °F 82% 30.09 in - Variable 2.3 mph - N/A   Clear
6:00 AM 62 °F - 56 °F 73% 30.07 in 7 mi NNW 2.2 mph - -  
6:00 AM 60.8 °F - 55.4 °F 82% 30.06 in - Calm Calm - N/A   Clear
6:30 AM 62.6 °F - 57.2 °F 82% 30.06 in - West 2.3 mph - N/A   Clear
7:00 AM 65 °F - 59 °F 76% 30.06 in 7 mi SSW 2.2 mph - -  
7:00 AM 64.4 °F - 59.0 °F 83% 30.06 in - West 2.3 mph - N/A   Clear
7:30 AM 68.0 °F - 59.0 °F 73% 30.06 in - Variable 1.2 mph - N/A   Clear
8:00 AM 71 °F - 61 °F 62% 30.05 in 9 mi ESE 2.2 mph - -  
8:00 AM 69.8 °F - 60.8 °F 73% 30.06 in - Calm Calm - N/A   Clear
8:30 AM 71.6 °F - 60.8 °F 69% 30.06 in - Variable 2.3 mph - N/A   Clear
9:00 AM 74 °F - 60 °F 52% 30.04 in 12 mi NE 2.2 mph - -   Scattered Clouds
9:00 AM 73.4 °F - 59.0 °F 61% 30.09 in - Variable 1.2 mph - N/A   Clear
9:30 AM 77.0 °F - 60.8 °F 57% 30.06 in - Variable 2.3 mph - N/A   Clear
10:00 AM 77 °F - 61 °F 47% 30.03 in 16 mi ENE 4.5 mph - -  
10:00 AM 77.0 °F - 60.8 °F 57% 30.06 in - Variable 2.3 mph - N/A   Clear
10:30 AM 78.8 °F - 60.8 °F 54% 30.06 in - NNE 3.5 mph - N/A   Clear
11:00 AM 80.6 °F 81.5 °F 60.8 °F 51% 30.06 in - Variable 3.5 mph - N/A   Clear
11:11 AM 80 °F - 60 °F 40% 30.02 in 19 mi East 4.5 mph - -   Scattered Clouds
11:30 AM 80.6 °F 81.5 °F 60.8 °F 51% 30.06 in - East 5.8 mph - N/A   Clear
12:00 PM 82 °F - 60 °F 37% 30.00 in 19 mi East 4.5 mph - -   Scattered Clouds
12:00 PM 82.4 °F 82.5 °F 59.0 °F 45% 30.06 in - East 5.8 mph - N/A   Clear
12:30 PM 82.4 °F 81.4 °F 53.6 °F 37% 30.06 in - East 6.9 mph - N/A   Clear
1:00 PM 83 °F - 58 °F 33% 29.99 in 22 mi East 6.7 mph - -   Scattered Clouds
1:30 PM 82.4 °F 81.7 °F 55.4 °F 39% 30.04 in - Variable 6.9 mph - N/A   Clear
2:00 PM 84 °F - 54 °F 26% 29.97 in 22 mi ESE 4.5 mph - -   Scattered Clouds
2:00 PM 84.2 °F 83.0 °F 55.4 °F 37% 30.04 in - SE 8.1 mph - N/A   Clear
2:30 PM 84.2 °F 83.5 °F 57.2 °F 40% 30.04 in - Variable 3.5 mph - N/A   Clear
3:00 PM 85 °F - 56 °F 26% 29.96 in 22 mi SE 2.2 mph - -   Scattered Clouds
3:00 PM 84.2 °F 83.0 °F 55.4 °F 37% 30.04 in - ESE 8.1 mph - N/A   Clear
3:30 PM 86.0 °F 84.5 °F 55.4 °F 35% 30.01 in - Variable 5.8 mph - N/A   Clear
4:00 PM 85 °F - 56 °F 27% 29.95 in 22 mi SE 4.5 mph - -   Scattered Clouds
4:00 PM 86.0 °F 84.9 °F 57.2 °F 37% 30.01 in - SSE 5.8 mph - N/A   Clear
4:30 PM 86.0 °F 84.9 °F 57.2 °F 37% 30.01 in - ESE 4.6 mph - N/A   Clear
5:00 PM 85 °F - 58 °F 30% 29.93 in 22 mi ESE 6.7 mph - -   Scattered Clouds
5:00 PM 86.0 °F 84.9 °F 57.2 °F 37% 29.98 in - ESE 5.8 mph - N/A   Clear
5:30 PM 86.0 °F 84.9 °F 57.2 °F 37% 29.98 in - East 8.1 mph - N/A   Clear
6:00 PM 85 °F - 57 °F 29% 29.91 in 22 mi ESE 6.7 mph - -   Scattered Clouds
6:00 PM 86.0 °F 85.4 °F 59.0 °F 40% 29.98 in - East 5.8 mph - N/A   Clear
6:30 PM 84.2 °F 83.8 °F 59.0 °F 42% 29.98 in - ESE 6.9 mph - N/A   Clear
7:00 PM 84 °F - 60 °F 34% 29.91 in 22 mi ESE 4.5 mph - -   Scattered Clouds
7:00 PM 84.2 °F 84.4 °F 60.8 °F 45% 29.98 in - ESE 4.6 mph - N/A   Clear
7:30 PM 82.4 °F 82.9 °F 60.8 °F 48% 29.98 in - ESE 4.6 mph - N/A   Clear
8:00 PM 81 °F - 59 °F 37% 29.91 in 22 mi East 6.7 mph - -   Scattered Clouds
8:00 PM 80.6 °F 81.5 °F 60.8 °F 51% 29.98 in - East 5.8 mph - N/A   Clear
8:30 PM 78.8 °F - 59.0 °F 51% 29.98 in - East 6.9 mph - N/A   Clear
9:00 PM 77 °F - 58 °F 41% 29.93 in 22 mi East 6.7 mph - -   Scattered Clouds
9:00 PM 77.0 °F - 59.0 °F 54% 29.98 in - East 8.1 mph - N/A   Clear
9:30 PM 75.2 °F - 57.2 °F 53% 29.98 in - East 6.9 mph - N/A   Clear
10:00 PM 75 °F - 57 °F 43% 29.93 in 19 mi East 6.7 mph - -   Scattered Clouds
10:00 PM 75.2 °F - 57.2 °F 53% 29.98 in - East 8.1 mph - N/A   Clear
10:30 PM 75.2 °F - 57.2 °F 53% 29.98 in - East 6.9 mph - N/A   Clear
11:00 PM 74 °F - 56 °F 43% 29.93 in 19 mi East 8.9 mph - -   Scattered Clouds
11:00 PM 73.4 °F - 55.4 °F 53% 29.98 in - East 8.1 mph - N/A   Clear
11:30 PM 73.4 °F - 57.2 °F 57% 29.98 in - ESE 6.9 mph - N/A   Clear